STARLINK-1405, 45702

Orbit data source: Space-Track

STARLINK-1405, 45702 is a payload satellite owned by SpaceX/Seattle (US) in LEO that was launched on Thu, 04 Jun 2020 UTC via an FALCON 9 launch vehicle from the Air Force Eastern Test Range (AFETR). Payload-class satellites include a variety of spacecraft equipped with specific instruments for various scientific and technological missions. These include communications satellites like Starlink; space stations such as the ISS; scientific satellites like the Hubble; Earth observation satellites from companies like Planet Labs, Umbra, and HawkEye 360; GPS; miniature CubeSats for education and research; and military/defense satellites.

Loading next visibility...
Identifier
45702, 2020-035AX
Orbit
LEO
Last TLE update
17 hours ago
Origin
Manufacturer
SpaceX/Seattle
Mission
Non-operational Commercial Communications
Bus & Motor
STARLINK, Unknown motor
Mass
260 kg wet, ~248 kg dry
Launch date (UTC)
2020-06-04 (5 years ago)
Launch vehicle
FALCON 9
Launch site
Air Force Eastern Test Range (AFETR)
Object type
Payload
Rocket body
Debris
Shape & HBR
Box + 1 Pan, 8.86 m
Radar Cross Section
13.562 m², Large (>1 m²)

Expand to show TLE details & history

TLE from 17 hours ago
0 STARLINK-1405
1 45702U 20035AX  25183.88157802  .00209312  00000-0  25232-2 0  9999
2 45702  53.0235  40.5693 0002192 185.4427 174.6561 15.59580804282029
Epoch: 2025-07-02T21:09Z
TLE epoch observation values (Epoch: 2025-07-02T21:09:28.34Z)
Latitude
-0.00007°
Longitude
162.04485°
Altitude
391.243 km
Speed
7.676 km/s
True Right ascension
02h 42m 16s
True Declination
0° 00' 00"
Sunlit
Object was in daylight at epoch
Visualization orbit readout
Latitude
-4.5348°
Longitude
155.21032°
Altitude
391.05 km
Speed
7.676 km/s
Apparent Right ascension
03h 18m 22s
Apparent Declination
-67° 00' 31"
Sunlit
Object is in daylight
Visualization observer readout
Local Sidereal Time
01:49:55
Azimuth
171.095° S
Elevation
-18.249°
Doppler factor
1
Orbital elements
Apogee altitude
390.635 km
Perigee altitude
387.668 km
Semi-major axis
6,767.288 km
Eccentricity
0.00022
Inclination
53.0235°
RAAN
40.5693°
Arg. of periapsis
185.4427°
True anomaly
Unknown
Mean anomaly
174.6561°
Eccentric anomaly
Unknown
Mean motion
3.89871 °/min
Orbital period
92.34 mins
BSTAR
0.0025232
Loading maneuver chart data...
Loading SW <> Apogee altitude chart data...

STARLINK-1405 Visibility forecast

Observer location: undefined°, undefined°

Span
Click to sort rows by Start time (UTC) header in descending order
Start Az.
Max El. time (UTC)
Max El. Az.
Max El.
End time (UTC)
End Az.
6 mins2025-07-03 17:19:59.823Z236.049° WSW2025-07-03 17:22:59.823Z329.27° NNW43.597°2025-07-03 17:25:59.823Z46.608° ENE
4 mins2025-07-03 23:48:59.823Z318.296° NNW2025-07-03 23:49:59.823Z355.38° N43.692°2025-07-03 23:52:59.823Z125.773° SE
|